Date String (YYYY-MM-DD hh:mm:ss) UTC,Instrument flags,absolute air pressure of the measurement (hPa),sample flow rate (lpm),inlet stack bypass flow (lpm),air temperature of the measurement (°C),ambient temperature measured by the external sensor (°C),aerosol sample conditioner tube jacket temperature (°C),OPC LED temperature (°C),internal box temperature (°C),relative humidity of the measurement (%),span deviation,mass concentration of particles derived from Lorenz-Mie calculation of OPC scattering (μg/m³),mass concentration of particles derived from Lorenz-Mie calculation of OPC scattering (μg/m³),mass concentration of particles derived from Lorenz-Mie calculation of OPC scattering (μg/m³)
DateTimeUTC,F1_M11,P_M11,Q1_M11,Q2_M11,T1_M11,T2_M11,T3_M11,T4_M11,T5_M11,U1_M11,ZSPAN_M11,X2_M11,X0_M11,X1_M11
2023-08-09 20:00:00,SystemResetWarning,0830.9,5.00,000.00,029.1,027.5,000.0,037.5,030.8,23.3,0000.0,0005.03,0010.77,0004.67
2023-08-09 20:01:00,SystemResetWarning,0830.9,5.00,000.00,029.1,027.7,000.0,037.5,030.9,23.3,0000.0,0005.03,0010.98,0004.69
2023-08-09 20:02:00,SystemResetWarning,0830.9,5.00,000.00,029.2,027.9,000.0,037.5,031.0,23.0,0000.0,0005.07,0011.11,0004.70
2023-08-09 20:03:00,SystemResetWarning,0830.9,4.99,000.00,029.2,027.8,000.0,037.5,031.0,23.4,0000.0,0005.09,0010.51,0004.71
2023-08-09 20:04:00,SystemResetWarning,0830.8,5.00,000.00,029.2,026.1,000.0,037.4,030.7,23.3,0000.0,0005.12,0010.53,0004.71
2023-08-09 20:05:00,SystemResetWarning,0830.8,5.01,000.00,029.1,024.8,000.0,037.3,030.4,23.9,0000.0,0005.15,0010.71,0004.72
2023-08-09 20:06:00,SystemResetWarning,0830.8,5.01,000.00,029.0,024.9,000.0,037.2,030.3,24.3,0000.0,0005.17,0011.40,0004.71
2023-08-09 20:07:00,SystemResetWarning,0830.8,5.00,000.00,028.9,025.3,000.0,037.3,030.2,24.0,0000.0,0005.18,0010.90,0004.70
2023-08-09 20:08:00,SystemResetWarning,0830.9,4.99,000.00,028.9,025.7,000.0,037.3,030.3,23.6,0000.0,0005.21,0010.82,0004.70
2023-08-09 20:09:00,SystemResetWarning,0830.8,5.00,000.00,028.9,026.2,000.0,037.4,030.5,23.8,0000.0,0005.23,0011.14,0004.71
2023-08-09 20:10:00,SystemResetWarning,0830.8,5.00,000.00,028.9,026.6,000.0,037.4,030.6,23.9,0000.0,0005.21,0011.94,0004.73
2023-08-09 20:11:00,SystemResetWarning,0830.7,5.00,000.00,029.0,026.9,000.0,037.4,030.7,24.1,0000.0,0005.22,0012.10,0004.74
2023-08-09 20:12:00,SystemResetWarning,0830.8,5.00,000.00,029.0,027.3,000.0,037.4,030.8,24.0,0000.0,0005.23,0011.93,0004.74
2023-08-09 20:13:00,SystemResetWarning,0830.8,5.00,000.00,029.0,027.5,000.0,037.5,030.8,24.3,0000.0,0005.23,0011.53,0004.75
2023-08-09 20:14:00,SystemResetWarning,0830.8,5.00,000.00,029.1,027.7,000.0,037.5,030.9,24.8,0000.0,0005.20,0011.67,0004.74
2023-08-09 20:15:00,SystemResetWarning,0830.8,4.99,000.00,029.1,027.9,000.0,037.5,031.0,24.4,0000.0,0005.19,0011.95,0004.74
2023-08-09 20:16:00,SystemResetWarning,0830.8,4.99,000.00,029.2,027.5,000.0,037.5,030.9,23.9,0000.0,0005.18,0012.01,0004.74
2023-08-09 20:17:00,SystemResetWarning,0830.7,5.00,000.00,029.2,026.0,000.0,037.4,030.7,24.3,0000.0,0005.17,0011.56,0004.75
2023-08-09 20:18:00,SystemResetWarning,0830.7,5.01,000.00,029.1,025.8,000.0,037.3,030.6,24.5,0000.0,0005.20,0011.23,0004.76
2023-08-09 20:19:00,SystemResetWarning,0830.7,5.01,000.00,029.1,026.0,000.0,037.3,030.5,24.2,0000.0,0005.19,0011.11,0004.77
2023-08-09 20:20:00,SystemResetWarning,0830.7,5.00,000.00,029.0,026.3,000.0,037.4,030.6,24.6,0000.0,0005.18,0010.42,0004.78
2023-08-09 20:21:00,SystemResetWarning,0830.6,4.98,000.00,029.1,026.7,000.0,037.4,030.7,25.0,0000.0,0005.20,0009.86,0004.78
2023-08-09 20:22:00,SystemResetWarning,0830.7,5.00,000.00,029.1,027.1,000.0,037.5,030.8,24.9,0000.0,0005.21,0009.41,0004.78
2023-08-09 20:23:00,SystemResetWarning,0830.6,5.02,000.00,029.1,027.4,000.0,037.5,030.9,24.6,0000.0,0005.22,0009.44,0004.79
2023-08-09 20:24:00,SystemResetWarning,0830.6,5.00,000.00,029.2,027.6,000.0,037.5,030.9,24.2,0000.0,0005.25,0009.92,0004.79
2023-08-09 20:25:00,SystemResetWarning,0830.6,4.99,000.00,029.2,027.9,000.0,037.6,031.0,23.9,0000.1,0005.29,0010.41,0004.80
2023-08-09 20:26:00,SystemResetWarning,0830.6,4.99,000.00,029.3,027.6,000.0,037.6,031.0,24.1,0000.2,0005.31,0010.64,0004.80
2023-08-09 20:27:00,SystemResetWarning,0830.6,5.00,000.00,029.2,025.9,000.0,037.4,030.7,23.9,-000.0,0005.33,0010.55,0004.80
2023-08-09 20:28:00,SystemResetWarning,0830.5,5.00,000.00,029.1,024.8,000.0,037.3,030.5,23.6,-000.0,0005.32,0010.45,0004.79
2023-08-09 20:29:00,SystemResetWarning,0830.5,5.01,000.00,029.1,024.9,000.0,037.3,030.3,24.1,-000.1,0005.30,0010.44,0004.80
2023-08-09 20:30:00,SystemResetWarning,0830.7,5.01,000.00,029.0,025.3,000.0,037.3,030.3,24.2,0000.3,0005.34,0010.80,0004.81
2023-08-09 20:31:00,SystemResetWarning,0830.5,5.00,000.00,028.9,025.8,000.0,037.4,030.4,24.1,0000.6,0005.34,0010.87,0004.81
2023-08-09 20:32:00,SystemResetWarning,0830.5,5.00,000.00,029.0,026.3,000.0,037.4,030.5,24.1,0000.7,0005.31,0010.79,0004.81
2023-08-09 20:33:00,SystemResetWarning,0830.5,5.00,000.00,029.0,026.7,000.0,037.4,030.6,24.1,-000.0,0005.33,0010.78,0004.81
2023-08-09 20:34:00,SystemResetWarning,0830.6,5.00,000.00,029.0,027.0,000.0,037.5,030.7,23.9,-000.7,0005.35,0011.30,0004.80
2023-08-09 20:35:00,SystemResetWarning,0830.4,5.00,000.00,029.0,027.3,000.0,037.5,030.8,23.8,-001.1,0005.31,0011.11,0004.80
2023-08-09 20:36:00,SystemResetWarning,0830.4,5.00,000.00,029.1,027.6,000.0,037.5,030.9,23.7,-001.4,0005.28,0010.61,0004.81
2023-08-09 20:37:00,SystemResetWarning,0830.7,5.00,000.00,029.1,027.8,000.0,037.5,031.0,24.0,-001.6,0005.27,0009.99,0004.82
2023-08-09 20:38:00,SystemResetWarning,0830.4,4.99,000.00,029.2,027.9,000.0,037.5,031.0,23.9,-001.6,0005.26,0009.92,0004.82
2023-08-09 20:39:00,SystemResetWarning,0830.4,4.98,000.00,029.2,026.5,000.0,037.4,030.7,24.0,-001.6,0005.28,0010.10,0004.83
2023-08-09 20:40:00,SystemResetWarning,0830.4,5.00,000.00,029.1,025.0,000.0,037.3,030.5,24.5,-001.1,0005.28,0010.06,0004.83
2023-08-09 20:41:00,SystemResetWarning,0830.4,5.00,000.00,029.0,024.9,000.0,037.3,030.4,23.9,-001.4,0005.26,0009.76,0004.83
2023-08-09 20:42:00,SystemResetWarning,0830.5,5.01,000.00,028.9,025.2,000.0,037.3,030.3,23.8,-000.8,0005.28,0009.88,0004.84
2023-08-09 20:43:00,SystemResetWarning,0830.4,4.99,000.00,028.9,025.6,000.0,037.3,030.3,24.4,-001.2,0005.32,0010.02,0004.85
2023-08-09 20:44:00,SystemResetWarning,0830.5,5.00,000.00,028.9,026.1,000.0,037.4,030.5,23.9,-000.7,0005.31,0010.26,0004.85
2023-08-09 20:45:00,SystemResetWarning,0830.4,5.00,000.00,028.9,026.5,000.0,037.4,030.6,23.8,0000.3,0005.28,0010.78,0004.85
2023-08-09 20:46:00,SystemResetWarning,0830.4,5.00,000.00,029.0,026.9,000.0,037.4,030.7,24.0,0001.1,0005.29,0010.20,0004.86
2023-08-09 20:47:00,SystemResetWarning,0830.4,5.00,000.00,029.0,027.2,000.0,037.4,030.7,23.7,0001.0,0005.31,0009.96,0004.86
2023-08-09 20:48:00,SystemResetWarning,0830.4,4.99,000.00,029.0,027.5,000.0,037.5,030.8,24.4,0000.7,0005.33,0010.32,0004.86
2023-08-09 20:49:00,SystemResetWarning,0830.4,4.99,000.00,029.1,027.7,000.0,037.5,030.9,24.1,0000.4,0005.36,0010.45,0004.86
2023-08-09 20:50:00,SystemResetWarning,0830.4,5.00,000.00,029.2,027.9,000.0,037.5,031.0,24.0,-000.1,0005.37,0010.75,0004.87
2023-08-09 20:51:00,SystemResetWarning,0830.3,5.00,000.00,029.2,027.0,000.0,037.4,030.8,23.6,0000.1,0005.38,0010.67,0004.87
2023-08-09 20:52:00,SystemResetWarning,0830.3,5.00,000.00,029.1,025.2,000.0,037.3,030.5,23.4,-000.2,0005.39,0010.69,0004.88
2023-08-09 20:53:00,SystemResetWarning,0830.3,5.01,000.00,029.0,024.8,000.0,037.2,030.4,23.5,-000.5,0005.40,0010.62,0004.88
2023-08-09 20:54:00,SystemResetWarning,0830.3,5.01,000.00,029.0,025.1,000.0,037.2,030.3,23.7,-000.4,0005.39,0011.09,0004.89
2023-08-09 20:55:00,SystemResetWarning,0830.3,5.00,000.00,028.9,025.5,000.0,037.3,030.3,23.8,-000.1,0005.40,0011.00,0004.89
2023-08-09 20:56:00,SystemResetWarning,0830.3,4.99,000.00,028.9,026.0,000.0,037.3,030.4,24.7,-000.1,0005.41,0010.86,0004.91
2023-08-09 20:57:00,SystemResetWarning,0830.3,5.00,000.00,028.9,026.4,000.0,037.3,030.5,24.0,0000.0,0005.44,0011.41,0004.91
2023-08-09 20:58:00,SystemResetWarning,0830.3,5.00,000.00,029.0,026.8,000.0,037.4,030.6,23.6,0000.0,0005.46,0011.70,0004.92
2023-08-09 20:59:00,SystemResetWarning,0830.3,5.00,000.00,029.0,027.1,000.0,037.4,030.7,23.6,0000.0,0005.48,0011.49,0004.93
